Surface/Precipitation History
01/31/2015 15:45  to  2/1/2015 15:45
Change End Date:
Date/Time
(MST)
Sf
Temp Chem Water Layer Surface Precipitation
Sf Sub Frz Factor Pct Depth IcePct Cond Salin Type Intens Accum Rate
02/01/2015 15:36 Ice Warning 31.8F 38F 32F 5 0% - 100% 19 mhos 0 Yes - - -
02/01/2015 15:31 Ice Warning 31.8F 38F 32F 5 0% - 100% 28 mhos 0 Yes - - -
02/01/2015 15:21 Ice Warning 31.8F 38F 32F 10 0% - 100% 0 mhos 0 Yes - - -
02/01/2015 15:21 Ice Warning 31.8F 38F 32F 15 0% - 100% 0 mhos 0 Yes - - -
02/01/2015 15:11 Ice Warning 31.8F 38F 32F 20 0% - 100% 0 mhos 0 Yes - - -
02/01/2015 15:06 Ice Warning 31.8F 38F 32F 25 0% - 100% 0 mhos 0 Yes - - -
02/01/2015 15:01 Ice Warning 31.6F 38F 32F 25 0% - 100% 0 mhos 0 Yes - - -
02/01/2015 14:51 Ice Warning 31.5F 38F 32F 40 0% - 100% 0 mhos 0 Yes - - -
02/01/2015 14:51 Ice Warning 31.6F 38F 32F 45 0% - 100% 0 mhos 0 Yes - - -
02/01/2015 14:41 Ice Warning 31.5F 38F 32F 60 0% - 100% 0 mhos 0 Yes - - -
02/01/2015 14:36 Ice Warning 31.8F 38F 32F 80 0% - 100% 0 mhos 0 Yes - - -
02/01/2015 14:31 Ice Warning 31.8F 38F 32F 95 0% - 100% 0 mhos 0 Yes - - -
02/01/2015 14:21 Ice Warning 31.8F 38F 32F 95 0% - 100% 0 mhos 0 None None - -
02/01/2015 14:21 Ice Warning 31.8F 38F 32F 95 0% - 100% 0 mhos 0 None None - -
02/01/2015 14:11 Ice Warning 31.8F 38F 32F 95 0% - 100% 0 mhos 0 Yes - - -
Date/Time
(MST)
Sf
Temp Chem Water Layer Surface Precipitation
Sf Sub Frz Factor Pct Depth IcePct Cond Salin Type Intens Accum Rate
02/01/2015 14:06 Ice Warning 31.8F 38F 32F 95 0% - 100% 0 mhos 0 Yes - - -
02/01/2015 14:01 Ice Warning 31.8F 38F 32F 95 0% - 100% 0 mhos 0 Yes - - -
02/01/2015 13:51 Wet 32.2F 38F 32F 95 0% 0.00 in 0% 0 mhos 0 Yes - - -
02/01/2015 13:50 Wet 32.2F 38F 32F 95 0% 0.00 in 0% 0 mhos 0 Yes - - -
02/01/2015 13:40 Wet 32.4F 38F 32F 95 0% 0.00 in 0% 0 mhos 0 Yes - - -
02/01/2015 13:36 Wet 32.4F 38F 32F 95 0% 0.00 in 0% 0 mhos 0 Yes - - -
02/01/2015 13:30 Wet 32.4F 38F 32F 95 0% 0.00 in 0% 0 mhos 0 Yes - - -
02/01/2015 13:21 Wet 32.4F 38F 32F 95 0% 0.00 in 0% 0 mhos 0 Yes - - -
02/01/2015 13:20 Wet 32.2F 38F 32F 95 0% 0.00 in 0% 0 mhos 0 Yes - - -
02/01/2015 13:10 Wet 32.4F 38F 32F 95 0% 0.00 in 0% 9 mhos 0 Yes - - -
02/01/2015 13:00 Wet 32.2F 38F 32F 95 0% 0.00 in 0% 10 mhos 0 Yes - - -
02/01/2015 12:50 Ice Warning 31.8F 38F 32F 95 0% - 100% 0 mhos 0 Yes - - -
02/01/2015 12:40 Ice Warning 31.5F 38F 32F 95 0% - 100% 0 mhos 0 Yes - - -
02/01/2015 12:37 Ice Warning 31.3F 38F 32F 95 0% - 100% 0 mhos 0 Yes - - -
02/01/2015 12:30 Ice Warning 30.6F 38F 32F 95 0% - 100% 0 mhos 0 Yes - - -
Date/Time
(MST)
Sf
Temp Chem Water Layer Surface Precipitation
Sf Sub Frz Factor Pct Depth IcePct Cond Salin Type Intens Accum Rate
02/01/2015 12:20 Ice Warning 29.7F 38F 32F 95 0% - 100% 0 mhos 0 Yes - - -
02/01/2015 12:10 Ice Warning 28.6F 38F 32F 95 0% - 100% 0 mhos 0 Yes - - -
02/01/2015 12:00 Ice Warning 28.0F 38F 32F 95 0% - 100% 0 mhos 0 Yes - - -
02/01/2015 11:51 Ice Warning 27.3F 38F 32F 95 0% - 100% 0 mhos 0 None None - -
02/01/2015 11:50 Ice Warning 27.3F 38F 32F 95 0% - 100% 0 mhos 0 None None - -
02/01/2015 11:40 Ice Warning 27.1F 38F 32F 95 0% - 100% 0 mhos 0 None None - -
02/01/2015 11:36 Ice Warning 26.8F 38F 32F 95 0% - 100% 0 mhos 0 None None - -
02/01/2015 11:30 Ice Warning 25.9F 38F 32F 85 0% - 100% 0 mhos 0 None None - -
02/01/2015 11:21 Ice Warning 25.7F 38F 32F 70 0% - 100% 0 mhos 0 None None - -
02/01/2015 11:20 Ice Warning 25.7F 38F 32F 75 0% - 100% 0 mhos 0 None None - -
02/01/2015 11:10 Ice Warning 24.1F 38F 32F 60 0% - 100% 0 mhos 0 None None - -
02/01/2015 11:06 Ice Warning 23.7F 38F 32F 65 0% - 100% 0 mhos 0 None None - -
02/01/2015 11:00 Ice Warning 22.6F 38F 32F 60 0% - 100% 0 mhos 0 None None - -
02/01/2015 10:51 Ice Warning 21.6F 38F 32F 65 0% - 100% 0 mhos 0 None None - -
02/01/2015 10:50 Ice Warning 21.6F 38F 32F 65 0% - 100% 0 mhos 0 None None - -
Date/Time
(MST)
Sf
Temp Chem Water Layer Surface Precipitation
Sf Sub Frz Factor Pct Depth IcePct Cond Salin Type Intens Accum Rate
02/01/2015 10:40 Ice Warning 20.1F 38F 32F 65 0% - 100% 0 mhos 0 None None - -
02/01/2015 10:30 Ice Warning 19.4F 38F 32F 70 0% - 100% 0 mhos 0 None None - -
02/01/2015 10:21 Ice Warning 19.0F 38F 32F 70 0% - 100% 0 mhos 0 None None - -
02/01/2015 10:19 Ice Warning 18.9F 38F 32F 75 0% - 100% 0 mhos 0 None None - -
02/01/2015 10:09 Ice Warning 17.8F 38F 32F 70 0% - 100% 0 mhos 0 None None - -
02/01/2015 10:06 Ice Warning 17.1F 38F 32F 70 0% - 100% 0 mhos 0 None None - -
02/01/2015 09:59 Ice Warning 15.8F 38F 32F 65 0% - 100% 0 mhos 0 None None - -
02/01/2015 09:51 Ice Warning 13.3F 38F 32F 85 0% - 100% 0 mhos 0 None None - -
02/01/2015 09:49 Ice Warning 12.9F 38F 32F 75 0% - 100% 0 mhos 0 None None - -
02/01/2015 09:39 Ice Warning 10.9F 38F 32F 60 0% - 100% 0 mhos 0 None None - -
02/01/2015 09:36 Ice Warning 10.4F 38F 32F 60 0% - 100% 0 mhos 0 None None - -
02/01/2015 09:29 Ice Warning 10.0F 38F 32F 55 0% - 100% 0 mhos 0 None None - -
02/01/2015 09:21 Ice Warning 9.7F 38F 32F 60 0% - 100% 0 mhos 0 None None - -
02/01/2015 09:19 Ice Warning 9.9F 38F 32F 55 0% - 100% 0 mhos 0 None None - -
02/01/2015 09:09 Ice Warning 9.1F 38F 32F 55 0% - 100% 0 mhos 0 None None - -
Date/Time
(MST)
Sf
Temp Chem Water Layer Surface Precipitation
Sf Sub Frz Factor Pct Depth IcePct Cond Salin Type Intens Accum Rate
02/01/2015 09:06 Ice Warning 9.0F 38F 32F 50 0% - 100% 0 mhos 0 None None - -
02/01/2015 08:59 Ice Warning 8.8F 38F 32F 55 0% - 100% 5099 mhos 0 None None - -
02/01/2015 08:51 Ice Warning 8.4F 38F 32F 85 0% - 100% 111 mhos 0 None None - -
02/01/2015 08:49 Ice Warning 8.4F 38F 32F 70 0% - 100% 56 mhos 0 None None - -
02/01/2015 08:39 Ice Warning 8.2F 38F 32F 55 0% - 100% 111 mhos 0 None None - -
02/01/2015 08:36 Ice Warning 8.1F 38F 32F 70 0% - 100% 111 mhos 0 None None - -
02/01/2015 08:29 Ice Warning 8.1F 38F 32F 55 0% - 100% 56 mhos 0 None None - -
02/01/2015 08:21 Ice Warning 8.1F 38F 32F 60 0% - 100% 32 mhos 0 None None - -
02/01/2015 08:19 Ice Warning 7.9F 38F 32F 60 0% - 100% 37 mhos 0 None None - -
02/01/2015 08:09 Ice Warning 8.1F 38F 32F 60 0% - 100% 45 mhos 0 None None - -
02/01/2015 07:59 Ice Warning 8.1F 38F 32F 60 0% - 100% 37 mhos 0 None None - -
02/01/2015 07:49 Ice Warning 7.9F 38F 32F 65 0% - 100% 45 mhos 0 None None - -
02/01/2015 07:39 Ice Warning 8.2F 38F 32F 60 0% - 100% 37 mhos 0 None None - -
02/01/2015 07:29 Ice Warning 8.6F 38F 32F 55 0% - 100% 111 mhos 0 None None - -
02/01/2015 07:21 Ice Warning 8.4F 39F 32F 65 0% - 100% 5099 mhos 0 None None - -
Date/Time
(MST)
Sf
Temp Chem Water Layer Surface Precipitation
Sf Sub Frz Factor Pct Depth IcePct Cond Salin Type Intens Accum Rate
02/01/2015 07:18 Ice Warning 8.4F 39F 32F 80 0% - 100% 111 mhos 0 None None - -
02/01/2015 07:08 Ice Warning 8.1F 38F 32F 65 0% - 100% 37 mhos 0 None None - -
02/01/2015 07:06 Ice Warning 7.9F 39F 32F 65 0% - 100% 32 mhos 0 None None - -
02/01/2015 06:58 Ice Warning 7.9F 38F 32F 60 0% - 100% 32 mhos 0 None None - -
02/01/2015 06:48 Ice Warning 7.9F 39F 32F 70 0% - 100% 25 mhos 0 None None - -
02/01/2015 06:38 Ice Warning 7.9F 38F 32F 70 0% - 100% 32 mhos 0 None None - -
02/01/2015 06:28 Ice Warning 7.9F 38F 32F 95 0% - 100% 28 mhos 0 None None - -
02/01/2015 06:21 Ice Warning 8.2F 39F 32F 85 0% - 100% 28 mhos 0 None None - -
02/01/2015 06:18 Ice Warning 8.2F 39F 32F 75 0% - 100% 22 mhos 0 None None - -
02/01/2015 06:08 Ice Warning 8.2F 39F 32F 75 0% - 100% 32 mhos 0 None None - -
02/01/2015 06:06 Ice Warning 8.2F 38F 32F 65 0% - 100% 28 mhos 0 None None - -
02/01/2015 05:58 Ice Warning 8.6F 38F 32F 75 0% - 100% 37 mhos 0 None None - -
02/01/2015 05:51 Ice Warning 8.4F 39F 32F 65 0% - 100% 37 mhos 0 None None - -
02/01/2015 05:48 Ice Warning 8.6F 38F 32F 60 0% - 100% 37 mhos 0 None None - -
02/01/2015 05:38 Ice Warning 8.8F 39F 32F 60 0% - 100% 45 mhos 0 None None - -
Date/Time
(MST)
Sf
Temp Chem Water Layer Surface Precipitation
Sf Sub Frz Factor Pct Depth IcePct Cond Salin Type Intens Accum Rate
02/01/2015 05:36 Ice Warning 8.8F 39F 32F 70 0% - 100% 45 mhos 0 None None - -
02/01/2015 05:28 Ice Warning 8.8F 39F 32F 70 0% - 100% 45 mhos 0 None None - -
02/01/2015 05:21 Ice Warning 8.8F 39F 32F 60 0% - 100% 45 mhos 0 None None - -
02/01/2015 05:18 Ice Warning 9.0F 39F 32F 60 0% - 100% 32 mhos 0 None None - -
02/01/2015 05:08 Ice Warning 9.1F 39F 32F 55 0% - 100% 37 mhos 0 None None - -
02/01/2015 05:06 Ice Warning 9.1F 39F 32F 60 0% - 100% 45 mhos 0 None None - -
02/01/2015 04:58 Ice Warning 9.1F 39F 32F 60 0% - 100% 45 mhos 0 None None - -
02/01/2015 04:51 Ice Warning 9.1F 39F 32F 70 0% - 100% 32 mhos 0 None None - -
02/01/2015 04:48 Ice Warning 9.3F 39F 32F 60 0% - 100% 37 mhos 0 None None - -
02/01/2015 04:38 Ice Warning 9.5F 39F 32F 60 0% - 100% 56 mhos 0 None None - -
02/01/2015 04:36 Ice Warning 9.7F 39F 32F 55 0% - 100% 45 mhos 0 None None - -
02/01/2015 04:27 Ice Warning 9.9F 39F 32F 60 0% - 100% 45 mhos 0 None None - -
02/01/2015 04:21 Ice Warning 10.0F 39F 32F 85 0% - 100% 45 mhos 0 None None - -
02/01/2015 04:17 Ice Warning 9.9F 39F 32F 95 0% - 100% 74 mhos 0 None None - -
02/01/2015 04:07 Ice Warning 10.0F 39F 32F 60 0% - 100% 56 mhos 0 None None - -
Date/Time
(MST)
Sf
Temp Chem Water Layer Surface Precipitation
Sf Sub Frz Factor Pct Depth IcePct Cond Salin Type Intens Accum Rate
02/01/2015 04:06 Ice Warning 10.2F 39F 32F 55 0% - 100% 56 mhos 0 None None - -
02/01/2015 03:57 Ice Warning 10.4F 39F 32F 55 0% - 100% 74 mhos 0 None None - -
02/01/2015 03:51 Ice Warning 10.4F 39F 32F 55 0% - 100% 111 mhos 0 None None - -
02/01/2015 03:47 Ice Warning 10.4F 39F 32F 55 0% - 100% 111 mhos 0 None None - -
02/01/2015 03:37 Ice Warning 10.4F 39F 32F 60 0% - 100% 74 mhos 0 None None - -
02/01/2015 03:36 Ice Warning 10.8F 39F 32F 60 0% - 100% 56 mhos 0 None None - -
02/01/2015 03:27 Ice Warning 10.8F 39F 32F 55 0% - 100% 215 mhos 0 None None - -
02/01/2015 03:21 Ice Warning 11.1F 39F 32F 55 0% - 100% 111 mhos 0 None None - -
02/01/2015 03:17 Ice Warning 10.9F 39F 32F 55 0% - 100% 215 mhos 0 None None - -
02/01/2015 03:07 Ice Warning 10.9F 39F 32F 65 0% - 100% 5099 mhos 0 None None - -
02/01/2015 03:06 Ice Warning 11.3F 39F 32F 70 0% - 100% 0 mhos 0 None None - -
02/01/2015 02:57 Ice Warning 11.3F 39F 32F 60 0% - 100% 5099 mhos 0 None None - -
02/01/2015 02:51 Ice Warning 11.3F 39F 32F 55 0% - 100% 215 mhos 0 None None - -
02/01/2015 02:47 Ice Warning 11.5F 39F 32F 55 0% - 100% 0 mhos 0 None None - -
02/01/2015 02:37 Ice Warning 11.7F 39F 32F 60 0% - 100% 0 mhos 0 None None - -
Date/Time
(MST)
Sf
Temp Chem Water Layer Surface Precipitation
Sf Sub Frz Factor Pct Depth IcePct Cond Salin Type Intens Accum Rate
02/01/2015 02:36 Ice Warning 11.8F 39F 32F 90 0% - 100% 0 mhos 0 None None - -
02/01/2015 02:27 Ice Warning 11.8F 39F 32F 70 0% - 100% 0 mhos 0 None None - -
02/01/2015 02:21 Ice Warning 12.2F 39F 32F 65 0% - 100% 0 mhos 0 None None - -
02/01/2015 02:17 Ice Warning 12.4F 39F 32F 65 0% - 100% 0 mhos 0 None None - -
02/01/2015 02:07 Ice Warning 12.4F 39F 32F 90 0% - 100% 0 mhos 0 None None - -
02/01/2015 02:06 Ice Warning 12.6F 39F 32F 95 0% - 100% 0 mhos 0 None None - -
02/01/2015 01:57 Ice Warning 12.9F 39F 32F 95 0% - 100% 0 mhos 0 None None - -
02/01/2015 01:51 Ice Warning 13.1F 39F 32F 80 0% - 100% 0 mhos 0 None None - -
02/01/2015 01:47 Ice Warning 13.1F 39F 32F 85 0% - 100% 0 mhos 0 None None - -
02/01/2015 01:37 Ice Warning 13.5F 39F 32F 95 0% - 100% 0 mhos 0 None None - -
02/01/2015 01:36 Ice Warning 13.5F 39F 32F 95 0% - 100% 0 mhos 0 None None - -
02/01/2015 01:27 Ice Warning 13.8F 39F 32F 95 0% - 100% 0 mhos 0 None None - -
02/01/2015 01:21 Ice Warning 13.8F 39F 32F 95 0% - 100% 0 mhos 0 None None - -
02/01/2015 01:16 Ice Warning 14.0F 39F 32F 95 0% - 100% 0 mhos 0 None None - -
02/01/2015 01:06 Ice Warning 14.4F 39F 32F 95 0% - 100% 0 mhos 0 None None - -
Date/Time
(MST)
Sf
Temp Chem Water Layer Surface Precipitation
Sf Sub Frz Factor Pct Depth IcePct Cond Salin Type Intens Accum Rate
02/01/2015 01:06 Ice Warning 14.5F 39F 32F 95 0% - 100% 0 mhos 0 None None - -
02/01/2015 00:56 Ice Warning 14.7F 39F 32F 95 0% - 100% 0 mhos 0 None None - -
02/01/2015 00:51 Ice Warning 15.3F 39F 32F 95 0% - 100% 0 mhos 0 None None - -
02/01/2015 00:46 Ice Warning 15.4F 39F 32F 95 0% - 100% 0 mhos 0 None None - -
02/01/2015 00:36 Ice Warning 15.8F 39F 32F 95 0% - 100% 0 mhos 0 None None - -
02/01/2015 00:36 Ice Warning 15.8F 39F 32F 95 0% - 100% 0 mhos 0 None None - -
02/01/2015 00:26 Ice Warning 16.0F 39F 32F 95 0% - 100% 0 mhos 0 None None - -
02/01/2015 00:21 Ice Warning 16.3F 39F 32F 95 0% - 100% 0 mhos 0 None None - -
02/01/2015 00:16 Ice Warning 16.5F 39F 32F 95 0% - 100% 0 mhos 0 None None - -
02/01/2015 00:06 Ice Warning 16.7F 39F 32F 95 0% - 100% 0 mhos 0 None None - -
02/01/2015 00:06 Ice Warning 16.9F 39F 32F 95 0% - 100% 0 mhos 0 None None - -
01/31/2015 23:56 Ice Warning 17.2F 39F 32F 95 0% - 100% 0 mhos 0 None None - -
01/31/2015 23:54 Ice Warning 17.4F 39F 32F 75 0% - 100% 0 mhos 0 - - - -
01/31/2015 23:46 Ice Warning 17.8F 39F 32F 95 0% - 100% 0 mhos 0 None None - -
01/31/2015 23:36 Ice Warning 18.1F 39F 32F 95 0% - 100% 0 mhos 0 None None - -
Date/Time
(MST)
Sf
Temp Chem Water Layer Surface Precipitation
Sf Sub Frz Factor Pct Depth IcePct Cond Salin Type Intens Accum Rate
01/31/2015 23:36 Ice Warning 18.1F 39F 32F 95 0% - 100% 0 mhos 0 None None - -
01/31/2015 23:26 Ice Warning 18.1F 39F 32F 80 0% - 100% 0 mhos 0 None None - -
01/31/2015 23:21 Ice Warning 18.3F 39F 32F 80 0% - 100% 0 mhos 0 None None - -
01/31/2015 23:16 Ice Warning 18.5F 39F 32F 80 0% - 100% 0 mhos 0 None None - -
01/31/2015 23:06 Ice Warning 18.5F 39F 32F 95 0% - 100% 0 mhos 0 None None - -
01/31/2015 23:06 Ice Warning 18.5F 39F 32F 95 0% - 100% 0 mhos 0 None None - -
01/31/2015 22:56 Ice Warning 18.3F 39F 32F 90 0% - 100% 0 mhos 0 None None - -
01/31/2015 22:51 Ice Warning 18.3F 39F 32F 95 0% - 100% 0 mhos 0 None None - -
01/31/2015 22:46 Ice Warning 18.7F 39F 32F 95 0% - 100% 0 mhos 0 None None - -
01/31/2015 22:36 Ice Warning 18.9F 39F 32F 95 0% - 100% 0 mhos 0 None None - -
01/31/2015 22:36 Ice Warning 18.9F 39F 32F 95 0% - 100% 0 mhos 0 None None - -
01/31/2015 22:26 Ice Warning 18.9F 39F 32F 95 0% - 100% 0 mhos 0 None None - -
01/31/2015 22:21 Ice Warning 18.9F 39F 32F 95 0% - 100% 0 mhos 0 None None - -
01/31/2015 22:16 Ice Warning 18.9F 39F 32F 95 0% - 100% 0 mhos 0 None None - -
01/31/2015 22:06 Ice Warning 18.7F 39F 32F 95 0% - 100% 0 mhos 0 None None - -
Date/Time
(MST)
Sf
Temp Chem Water Layer Surface Precipitation
Sf Sub Frz Factor Pct Depth IcePct Cond Salin Type Intens Accum Rate
01/31/2015 22:05 Ice Warning 18.9F 39F 32F 95 0% - 100% 0 mhos 0 None None - -
01/31/2015 21:55 Ice Warning 18.7F 39F 32F 95 0% - 100% 0 mhos 0 None None - -
01/31/2015 21:51 Ice Warning 18.5F 39F 32F 95 0% - 100% 0 mhos 0 None None - -
01/31/2015 21:45 Ice Warning 18.3F 39F 32F 95 0% - 100% 0 mhos 0 None None - -
01/31/2015 21:36 Ice Warning 18.3F 39F 32F 95 0% - 100% 0 mhos 0 None None - -
01/31/2015 21:35 Ice Warning 18.3F 39F 32F 95 0% - 100% 0 mhos 0 None None - -
01/31/2015 21:25 Ice Warning 18.7F 39F 32F 95 0% - 100% 0 mhos 0 None None - -
01/31/2015 21:21 Ice Warning 19.2F 39F 32F 95 0% - 100% 0 mhos 0 None None - -
01/31/2015 21:15 Ice Warning 19.6F 39F 32F 95 0% - 100% 0 mhos 0 None None - -
01/31/2015 21:06 Ice Warning 19.8F 39F 32F 95 0% - 100% 0 mhos 0 None None - -
01/31/2015 21:05 Ice Warning 19.8F 39F 32F 95 0% - 100% 0 mhos 0 None None - -
01/31/2015 20:55 Ice Warning 19.6F 39F 32F 95 0% - 100% 0 mhos 0 None None - -
01/31/2015 20:51 Ice Warning 19.6F 39F 32F 95 0% - 100% 0 mhos 0 None None - -
01/31/2015 20:45 Ice Warning 19.6F 39F 32F 95 0% - 100% 0 mhos 0 None None - -
01/31/2015 20:36 Ice Warning 20.1F 39F 32F 95 0% - 100% 0 mhos 0 None None - -
Date/Time
(MST)
Sf
Temp Chem Water Layer Surface Precipitation
Sf Sub Frz Factor Pct Depth IcePct Cond Salin Type Intens Accum Rate
01/31/2015 20:35 Ice Warning 20.1F 39F 32F 95 0% - 100% 0 mhos 0 None None - -
01/31/2015 20:25 Ice Warning 20.5F 39F 32F 95 0% - 100% 0 mhos 0 None None - -
01/31/2015 20:21 Ice Warning 20.3F 39F 32F 95 0% - 100% 0 mhos 0 None None - -
01/31/2015 20:15 Ice Warning 20.8F 39F 32F 95 0% - 100% 0 mhos 0 None None - -
01/31/2015 20:06 Ice Warning 21.6F 39F 32F 95 0% - 100% 0 mhos 0 Yes - - -
01/31/2015 20:05 Ice Warning 21.6F 39F 32F 95 0% - 100% 0 mhos 0 None None - -
01/31/2015 19:55 Ice Warning 22.3F 39F 32F 95 0% - 100% 0 mhos 0 None None - -
01/31/2015 19:51 Ice Warning 22.5F 39F 32F 95 0% - 100% 0 mhos 0 Yes - - -
01/31/2015 19:45 Ice Warning 22.6F 40F 32F 95 0% - 100% 0 mhos 0 Yes - - -
01/31/2015 19:36 Ice Warning 23.0F 40F 32F 95 0% - 100% 0 mhos 0 Yes - - -
01/31/2015 19:35 Ice Warning 23.0F 39F 32F 95 0% - 100% 0 mhos 0 Yes - - -
01/31/2015 19:25 Ice Warning 23.2F 39F 32F 95 0% - 100% 0 mhos 0 None None - -
01/31/2015 19:21 Ice Warning 23.4F 40F 32F 95 0% - 100% 0 mhos 0 Yes - - -
01/31/2015 19:15 Ice Warning 23.4F 39F 32F 95 0% - 100% 0 mhos 0 None None - -
01/31/2015 19:06 Ice Warning 23.5F 40F 32F 95 0% - 100% 0 mhos 0 None None - -
Date/Time
(MST)
Sf
Temp Chem Water Layer Surface Precipitation
Sf Sub Frz Factor Pct Depth IcePct Cond Salin Type Intens Accum Rate
01/31/2015 19:05 Ice Warning 23.5F 39F 32F 95 0% - 100% 0 mhos 0 None None - -
01/31/2015 18:55 Ice Warning 23.5F 39F 32F 95 0% - 100% 0 mhos 0 None None - -
01/31/2015 18:51 Ice Warning 23.7F 40F 32F 95 0% - 100% 0 mhos 0 None None - -
01/31/2015 18:44 Ice Warning 23.7F 40F 32F 95 0% - 100% 0 mhos 0 None None - -
01/31/2015 18:36 Ice Warning 24.1F 40F 32F 95 0% - 100% 0 mhos 0 None None - -
01/31/2015 18:34 Ice Warning 24.1F 40F 32F 95 0% - 100% 0 mhos 0 Yes - - -
01/31/2015 18:24 Ice Warning 24.1F 40F 32F 95 0% - 100% 0 mhos 0 Yes - - -
01/31/2015 18:21 Ice Warning 24.3F 40F 32F 95 0% - 100% 0 mhos 0 None None - -
01/31/2015 18:14 Ice Warning 24.6F 40F 32F 95 0% - 100% 0 mhos 0 Yes - - -
01/31/2015 18:06 Ice Warning 24.6F 40F 32F 95 0% - 100% 0 mhos 0 Yes - - -
01/31/2015 18:04 Ice Warning 24.6F 40F 32F 95 0% - 100% 0 mhos 0 Yes - - -
01/31/2015 17:54 Ice Warning 24.8F 40F 32F 95 0% - 100% 0 mhos 0 Yes - - -
01/31/2015 17:51 Ice Warning 24.8F 40F 32F 95 0% - 100% 0 mhos 0 Yes - - -
01/31/2015 17:44 Ice Warning 25.0F 40F 32F 95 0% - 100% 0 mhos 0 Yes - - -
01/31/2015 17:36 Ice Warning 25.5F 40F 32F 95 0% - 100% 0 mhos 0 Yes - - -
Date/Time
(MST)
Sf
Temp Chem Water Layer Surface Precipitation
Sf Sub Frz Factor Pct Depth IcePct Cond Salin Type Intens Accum Rate
01/31/2015 17:34 Ice Warning 25.3F 40F 32F 95 0% - 100% 0 mhos 0 Yes - - -
01/31/2015 17:24 Ice Warning 25.9F 40F 32F 95 0% - 100% 0 mhos 0 Yes - - -
01/31/2015 17:21 Ice Warning 25.9F 40F 32F 95 0% - 100% 0 mhos 0 Yes - - -
01/31/2015 17:14 Ice Warning 26.2F 40F 32F 95 0% - 100% 0 mhos 0 Yes - - -
01/31/2015 17:06 Ice Warning 26.4F 40F 32F 95 0% - 100% 0 mhos 0 None None - -
01/31/2015 17:04 Ice Warning 26.6F 40F 32F 95 0% - 100% 0 mhos 0 None None - -
01/31/2015 16:54 Ice Warning 26.8F 40F 32F 95 0% - 100% 0 mhos 0 Yes - - -
01/31/2015 16:51 Ice Warning 27.0F 40F 32F 95 0% - 100% 0 mhos 0 Yes - - -
01/31/2015 16:44 Ice Warning 27.5F 40F 32F 95 0% - 100% 0 mhos 0 None None - -
01/31/2015 16:36 Ice Warning 27.7F 40F 32F 95 0% - 100% 0 mhos 0 None None - -
01/31/2015 16:34 Ice Warning 27.7F 40F 32F 95 0% - 100% 0 mhos 0 Yes - - -
01/31/2015 16:24 Ice Warning 28.2F 40F 32F 95 0% - 100% 0 mhos 0 Yes - - -
01/31/2015 16:21 Ice Warning 28.4F 40F 32F 95 0% - 100% 0 mhos 0 None None - -
01/31/2015 16:14 Ice Warning 29.1F 40F 32F 95 0% - 100% 0 mhos 0 Yes - - -
01/31/2015 16:06 Ice Warning 29.7F 40F 32F 95 0% - 100% 0 mhos 0 Yes - - -
Date/Time
(MST)
Sf
Temp Chem Water Layer Surface Precipitation
Sf Sub Frz Factor Pct Depth IcePct Cond Salin Type Intens Accum Rate
01/31/2015 16:04 Ice Warning 29.5F 40F 32F 95 0% - 100% 0 mhos 0 Yes - - -
01/31/2015 15:54 Ice Warning 30.2F 40F 32F 95 0% - 100% 0 mhos 0 Yes - - -
01/31/2015 15:51 Ice Warning 30.2F 40F 32F 95 0% - 100% 0 mhos 0 Yes - - -
Change End Date:
Copyright © 1998-2005 Surface Systems, Inc.
All Rights Reserved
Send comments about the data to:
SCAN Web ® is a registered trademark of Surface Systems, Inc.
SCAN Web Version 5.6